Regional Weather Roundup
Issued by NWS Spokane, WA

Home | Current Version | Previous Version | Text Only | Print | Product List | Glossary On
Versions: 1 2 3 4 5 6 7 8 9 10 11 12 13 14 15 16 17 18 19 20 21 22 23 24 25 26 27 28 29 30 31 32 33 34 35 36 37 38 39 40 41 42 43 44 45 46 47 48 49 50
000
NZUS01 KOTX 062000
RWROTX
EASTERN WASHINGTON/NORTHERN IDAHO ROUNDUP
NATIONAL WEATHER SERVICE, SPOKANE WA
100 PM PDT MON JUL 06 2015

Note: "fair" indicated few or no clouds below 12,000 feet with no
significant weather and/or obstructions to visibility.

...NORTHEAST WASHINGTON AND NORTHERN IDAHO PANHANDLE...

CITY           SKY/WX    TMP DP  RH WIND       PRES   REMARKS
SPOKANE INTL   PTSUNNY   85  41  21 VRB6      30.04F
SPOKANE DOWNTO MOSUNNY   89  42  19 VRB3      30.03F
COEUR D ALENE  SUNNY     82  46  28 CALM      30.05F
DEER PARK      MOSUNNY   84  45  25 NE7       30.05F

...SOUTHEAST WASHINGTON AND SOUTHERN IDAHO PANHANDLE...

CITY           SKY/WX    TMP DP  RH WIND       PRES   REMARKS
WALLA WALLA    SUNNY     92  46  20 SW6       29.95F
PULLMAN/MOSCOW SUNNY     88  43  20 VRB5      30.06F
LOWELL           N/A     93  47  20 VRB5      29.97F

...COLUMBIA BASIN...

CITY           SKY/WX    TMP DP  RH WIND       PRES   REMARKS
EPHRATA        SUNNY     93  45  19 VRB7      29.95F
MOSES LAKE     SUNNY     93  46  19 S8        29.95F
TRI CITIES     SUNNY     90  52  27 N3        29.92F
HERMISTON      SUNNY     93  48  21 VRB3      29.92F
PENDLETON      SUNNY     96  41  15 NW12      29.96F HX  92

...EAST SLOPES CASCADES...

CITY           SKY/WX    TMP DP  RH WIND       PRES   REMARKS
THE DALLES     SUNNY     96  52  22 NW15      29.89F HX  93
YAKIMA         SUNNY    N/A N/A N/A E10       29.93F
ELLENSBURG     SUNNY     92  44  19 VRB3      29.97F
WENATCHEE      SUNNY     91  42  18 E7        29.95F
OMAK           SUNNY     90  39  16 S5        29.96F

...SOUTHERN BRITISH COLUMBIA...

CITY           SKY/WX    TMP DP  RH WIND       PRES   REMARKS

...WESTERN MONTANA...

CITY           SKY/WX    TMP DP  RH WIND       PRES   REMARKS
MISSOULA       SUNNY     79  46  31 NW10      30.11F

...NEIGHBORING CITIES...

CITY           SKY/WX    TMP DP  RH WIND       PRES   REMARKS
SEATTLE        PTSUNNY   79  54  41 SW13G21   30.01F



USA.gov is the U.S. government's official web portal to all federal, state and local government web resources and services.